Regional Weather Roundup
Issued by NWS

Home | Current Version | Previous Version | Text Only | Print | Product List | Glossary Off
Versions: 1 2 3 4 5 6 7 8 9 10 11 12 13 14 15 16 17 18 19 20 21 22 23 24 25 26 27 28 29 30 31 32 33 34 35 36 37 38 39 40 41 42 43 44 45 46 47 48 49 50

000
ASUS43 KDTX 290810
RWRMI
MICHIGAN HOURLY REGIONAL WEATHER ROUNDUP
NATIONAL WEATHER SERVICE DETROIT/PONTIAC MI
400 AM EDT FRI APR 29 2016

NOTE: "FAIR" INDICATES FEW OR NO CLOUDS BELOW 12,000 FEET WITH NO
SIGNIFICANT WEATHER AND/OR OBSTRUCTION TO VISIBILITY.

MIZ047>049-052>055-059>063-066>070-074>076-081>083-290900-
SOUTHEAST LOWER MICHIGAN

CITY           SKY/WX    TMP DP  RH WIND       PRES   REMARKS
ADRIAN         CLOUDY    46  33  60 NE6       30.01R
ALMA           LGT RAIN  39  34  82 NW6       30.04S WCI  35
ANN ARBOR      CLOUDY    45  31  58 NE6       30.00S
BAD AXE        MIX PCPN  39  37  90 CALM      30.04F
CARO           CLOUDY    40  34  78 CALM      30.03S
DETROIT CITY   CLOUDY    45  27  49 E6        30.02S
DETROIT        CLOUDY    46  29  51 NE8       30.01S
FLINT          CLOUDY    45  32  60 NE5       30.03S
GROSSE ILE     CLOUDY    45  34  65 NE6       29.99S
HILLSDALE      CLOUDY    44  38  78 CALM      30.00R
HOWELL         CLOUDY    43  31  63 NE3       30.01S

CITY           SKY/WX    TMP DP  RH WIND       PRES   REMARKS
JACKSON        CLOUDY    44  33  65 N5        30.01R
LAMBERTVILLE   CLOUDY    47  38  69 NE5       30.00S
LANSING        LGT RAIN  41  34  76 CALM      30.03S
LAPEER         CLOUDY    41  33  71 CALM      30.02S
MASON          CLOUDY    42  33  69 NE3       30.01S
MONROE         CLOUDY    45  35  67 CALM      30.00R
MT. CLEMENS    CLOUDY    43  34  70 N5        30.01S
PONTIAC        CLOUDY    43  29  57 NE3       30.00S
PORT HOPE        N/A     42  35  76 E3        30.03F
PORT HURON     CLOUDY    43  32  65 NE5       30.02S
TRI CITIES     CLOUDY    42  34  73 N6        30.04F
MIDLAND        CLOUDY    39  30  69 CALM      30.04S
TROY           CLOUDY    45  29  53 N5        30.03S
SAGINAW HB     CLOUDY    41  34  75 NE3       30.03S
$$
MIZ043>046-050>051-056>058-064>065-071>073-077>080-290900-
SOUTHWEST LOWER MICHIGAN

CITY           SKY/WX    TMP DP  RH WIND       PRES   REMARKS
BATTLE CREEK   CLOUDY    44  37  76 NE6       30.01F
BENTON HARBOR  CLOUDY    48  39  71 SE5       30.00S
BIG RAPIDS     CLOUDY    40  28  62 CALM      30.03F
COLDWATER      CLOUDY    45  38  77 E5        30.00F
FREMONT        CLOUDY    39  34  80 E5        30.04R
HOLLAND        CLOUDY    42  37  82 E6        30.02F
GRAND RAPIDS   CLOUDY    42  35  76 CALM      30.03S
IONIA          CLOUDY    40  34  81 CALM      30.02S
KALAMAZOO      CLOUDY    46  37  71 CALM      30.01S
LUDINGTON      CLOUDY    40  34  79 E3        30.06R
MARSHALL       CLOUDY    44  35  68 CALM      30.00F
MOUNT PLEASANT CLOUDY    38  31  76 N3        30.04S
MUSKEGON       CLOUDY    42  33  70 E7        30.03F
SOUTH HAVEN    CLOUDY    46  39  79 E3        30.01R
$$
MIZ016>042-290900-
NORTHERN LOWER MICHIGAN

CITY           SKY/WX    TMP DP  RH WIND       PRES   REMARKS
ALPENA         PTCLDY    36  28  73 N3        30.08F
BEAVER ISLAND  PTCLDY    35  29  78 CALM      30.10R
BELLAIRE       CLOUDY    43  23  44 CALM      30.08S
CADILLAC       CLOUDY    38  33  80 E3        30.04S
CHARLEVOIX     CLOUDY    41  25  52 E7        30.12R
FRANKFORT      CLOUDY    43  28  56 CALM      30.07S
GAYLORD        CLOUDY    39  21  48 E6        30.06S WCI  35
GRAYLING       CLOUDY    40  22  50 NE3       30.07S
HARBOR SPRINGS CLOUDY    38  28  67 E3        30.09S
HOUGHTON LAKE  CLOUDY    39  21  48 NE5       30.05S
MANISTEE       CLOUDY    43  28  56 E5        30.06R
OSCODA         CLOUDY    42  32  67 NE8       30.06S
PELLSTON       CLOUDY    31  26  82 CALM      30.10S
ROGERS CITY    CLOUDY    28  26  92 CALM      30.11R
TRAVERSE CITY  CLOUDY    44  37  76 CALM      30.07S
$$
MIZ007>008-015-290900-
EASTERN UPPER MICHIGAN

CITY           SKY/WX    TMP DP  RH WIND       PRES   REMARKS
KINROSS          N/A     36  30  80 NE5       30.10R WCI  32
MACKINAC ISLAN PTCLDY    35  24  65 E3        30.09S
NEWBERRY       CLOUDY    35  30  83 CALM      30.09S
S. S. MARIE    CLOUDY    37  27  67 NE6       30.11S WCI  32
MUNISING         N/A     33  30  88 S5        30.11S WCI  29
$$
MIZ004>006-011>014-085-290900-
CENTRAL UPPER MICHIGAN

CITY           SKY/WX    TMP DP  RH WIND       PRES   REMARKS
MANISTIQUE     CLOUDY    35  29  78 CALM      30.09S
ESCANABA       CLOUDY    39  28  65 N6        30.10S WCI  35
MENOMINEE      CLOUDY    43  27  52 N3        30.08S
SAWYER-GWINN   CLOUDY    33  27  80 N3        30.11S
$$
MIZ001>003-009>011-084-290900-
WESTERN UPPER MICHIGAN

CITY           SKY/WX    TMP DP  RH WIND       PRES   REMARKS
IRON MOUNTAIN  CLOUDY    39  25  57 N8        30.09S WCI  33
HOUGHTON       PTCLDY    30  23  75 NW3       30.11S
COPPER HARBOR    N/A     32  29  88 W5        30.12S WCI  27
IRONWOOD       CLOUDY    30  30 100 CALM      30.09R
$$

ABBREVIATIONS USED IN REMARKS
   TC - TEMPERATURE IN CELSIUS
  WCI - WIND CHILL INDEX
   HX - HEAT INDEX
  VSB - VISIBILITY




USA.gov is the U.S. government's official web portal to all federal, state and local government web resources and services.